Weather History for KN60 - May, 2013

Change the Weather History Date:

Saturday, May 18, 2013

  Actual Average Record
Temperature  
Mean Temperature 65 °F -  
Max Temperature 73 °F 64 °F 90 °F (2006)
Min Temperature 56 °F 39 °F 27 °F (2002)
Growing Degree Days 14 (Base 50)    
Moisture  
Dew Point 56 °F    
Average Humidity 77    
Maximum Humidity 93    
Minimum Humidity 61    
Precipitation  
Precipitation 0.00 in - - ()
Month to date precipitation 0.73  
Year to date precipitation 4.59  
Sea Level Pressure  
Sea Level Pressure 29.79 in    
Wind  
Wind Speed 7 mph (NNE)    
Max Wind Speed 15 mph    
Max Gust Speed 20 mph    
Averages and records for this station are not official NWS values.
T = Trace of Precipitation, MM = Missing Value Source: NWS Daily Summary

Daily Weather History Graph

Daily Weather History Graph

Search for Another Location

Airport or City:

Trip Planner

Search our weather history database for the weather conditions in past years. The results will help you decide how hot, cold, wet, or windy it might be!

Date:

Astronomy

May. 18, 2013 Rise Set
Actual Time 6:04 AM CDT 9:20 PM CDT
Civil Twilight 5:27 AM CDT 9:58 PM CDT
Nautical Twilight 4:38 AM CDT 10:47 PM CDT
Astronomical Twilight 3:36 AM CDT 11:49 PM CDT
Moon 1:57 PM CDT (5/18) 2:28 AM CDT (5/18)
Length of Visible Light 16h 31m
Length of Day
15h 16m
First Quarter, 55% of the Moon is Illuminated
May 18
First Quarter
May 24
Full
May 31
Last Quarter
Jun 8
New
Jun 16
First Quarter

Hourly Weather History & Observations

Time (CDT) Temp. Dew Point Humidity Pressure Visibility Wind Dir Wind Speed Gust Speed Precip Events Conditions
12:52 AM 62.1 °F 53.1 °F 72% 29.79 in - Variable 3.5 mph - N/A   Unknown
1:52 AM 60.1 °F 55.0 °F 83% 29.79 in - South 3.5 mph - N/A   Unknown
2:52 AM 57.9 °F 54.0 °F 87% 29.79 in - West 5.8 mph - N/A   Unknown
3:52 AM 57.0 °F 54.0 °F 89% 29.71 in - NNE 12.7 mph 18.4 mph N/A   Unknown
4:52 AM 57.0 °F 55.0 °F 93% 29.75 in - ENE 4.6 mph - N/A   Unknown
5:52 AM 57.0 °F 55.9 °F 96% 29.77 in - ESE 4.6 mph - N/A   Unknown
6:52 AM 57.0 °F 55.0 °F 93% 29.78 in - Calm Calm - N/A   Unknown
7:52 AM 57.0 °F 55.9 °F 96% 29.81 in - WNW 5.8 mph - N/A   Unknown
8:52 AM 59.0 °F 57.0 °F 93% 29.80 in - North 8.1 mph - N/A   Unknown
9:52 AM 63.0 °F 57.0 °F 81% 29.80 in - North 4.6 mph - N/A   Unknown
10:52 AM 64.9 °F 57.9 °F 78% 29.81 in - NNE 6.9 mph - N/A   Unknown
11:52 AM 64.9 °F 57.9 °F 78% 29.81 in - NNE 6.9 mph - N/A   Unknown
12:52 PM 66.9 °F 57.0 °F 70% 29.80 in - NNE 5.8 mph - N/A   Unknown
1:52 PM 69.1 °F 57.9 °F 68% 29.79 in - NNE 8.1 mph - N/A   Unknown
2:52 PM 70.0 °F 57.9 °F 65% 29.80 in - North 8.1 mph - N/A   Unknown
3:52 PM 71.1 °F 57.0 °F 61% 29.80 in - NE 4.6 mph - N/A   Unknown
4:52 PM 72.0 °F 57.0 °F 59% 29.78 in - NNE 9.2 mph - N/A   Unknown
5:52 PM 68.0 °F 55.9 °F 65% 29.79 in - NNE 11.5 mph - N/A   Unknown
6:52 PM 66.0 °F 57.0 °F 73% 29.81 in - NNE 12.7 mph 17.3 mph N/A   Unknown
7:52 PM 64.0 °F 57.0 °F 78% 29.79 in - NNE 11.5 mph - N/A   Unknown
8:52 PM 62.1 °F 57.0 °F 84% 29.79 in - NE 9.2 mph - N/A   Unknown
9:52 PM 60.1 °F 57.0 °F 90% 29.82 in - ENE 11.5 mph 19.6 mph N/A   Unknown
10:52 PM 59.0 °F 55.9 °F 90% 29.81 in - NE 10.4 mph 19.6 mph N/A   Unknown
11:52 PM 57.0 °F 55.9 °F 96% 29.83 in - ENE 10.4 mph 18.4 mph N/A   Unknown